• In Hungary
  • List of Countries
  • For 7 days
  • Water Temperature
  • Satellite Maps
  • Weather Map
  • News
  • Weather Widgets
  • user-avatar
    Login

    Hourly Weather Novotomnikovo

    Today, 26 September, Wednesday

    Time Temperature Precipitation Wind Pressure Humidity
    00:00 +6°C° 0 mm 4 mps 750 mmHg 80%
    01:00 +6°C° 0 mm 4 mps 751 mmHg 81%
    02:00 +5°C° 0 mm 4 mps 751 mmHg 83%
    03:00 +5°C° 0 mm 3 mps 751 mmHg 85%
    04:00 +5°C° 0 mm 3 mps 752 mmHg 87%
    05:00 +4°C° 0 mm 3 mps 752 mmHg 88%
    06:00 +4°C° 0 mm 3 mps 753 mmHg 90%
    07:00 +5°C° 0 mm 3 mps 754 mmHg 85%
    08:00 +6°C° 0 mm 4 mps 754 mmHg 80%
    09:00 +7°C° 0 mm 4 mps 755 mmHg 74%
    10:00 +8°C° 0 mm 4 mps 755 mmHg 69%
    11:00 +10°C° 0 mm 4 mps 756 mmHg 63%
    12:00 +11°C° 0 mm 4 mps 756 mmHg 57%
    13:00 +11°C° 0 mm 4 mps 756 mmHg 56%
    14:00 +11°C° 0 mm 4 mps 756 mmHg 55%
    15:00 +11°C° 0 mm 4 mps 757 mmHg 54%
    16:00 +10°C° 0 mm 3 mps 757 mmHg 56%
    17:00 +9°C° 0 mm 3 mps 757 mmHg 58%
    18:00 +9°C° 0 mm 2 mps 757 mmHg 60%
    19:00 +8°C° 0 mm 2 mps 757 mmHg 64%
    20:00 +7°C° 0 mm 3 mps 757 mmHg 67%
    21:00 +5°C° 0 mm 3 mps 757 mmHg 70%
    22:00 +5°C° 0 mm 3 mps 756 mmHg 70%
    23:00 +5°C° 0 mm 4 mps 756 mmHg 71%

    Tomorrow, 27 September, Thursday

    Time Temperature Precipitation Wind Pressure Humidity
    00:00 +5°C° 0 mm 4 mps 755 mmHg 71%
    01:00 +5°C° 0 mm 5 mps 755 mmHg 70%
    02:00 +5°C° 0 mm 5 mps 754 mmHg 69%
    03:00 +4°C° 0 mm 6 mps 753 mmHg 67%
    04:00 +5°C° 0 mm 6 mps 752 mmHg 66%
    05:00 +5°C° 0 mm 7 mps 751 mmHg 64%
    06:00 +5°C° 0 mm 8 mps 750 mmHg 62%
    07:00 +5°C° 0.6 mm 8 mps 750 mmHg 65%
    08:00 +5°C° 0.6 mm 9 mps 749 mmHg 67%
    09:00 +5°C° 0.6 mm 10 mps 748 mmHg 70%
    10:00 +5°C° 1.2 mm 10 mps 747 mmHg 73%
    11:00 +5°C° 1.2 mm 10 mps 747 mmHg 76%
    12:00 +5°C° 1.2 mm 10 mps 746 mmHg 80%
    13:00 +5°C° 0.7 mm 9 mps 746 mmHg 81%
    14:00 +6°C° 0.7 mm 9 mps 746 mmHg 82%
    15:00 +7°C° 0.7 mm 8 mps 746 mmHg 83%
    16:00 +7°C° 0.3 mm 8 mps 746 mmHg 81%
    17:00 +8°C° 0.3 mm 7 mps 746 mmHg 80%
    18:00 +8°C° 0.3 mm 7 mps 746 mmHg 78%
    19:00 +8°C° 0.2 mm 6 mps 747 mmHg 79%
    20:00 +7°C° 0.2 mm 6 mps 747 mmHg 80%
    21:00 +7°C° 0.2 mm 5 mps 747 mmHg 81%
    22:00 +7°C° 0 mm 5 mps 748 mmHg 82%
    23:00 +6°C° 0 mm 5 mps 748 mmHg 83%

    Day after tomorrow, 28 September, Friday

    Time Temperature Precipitation Wind Pressure Humidity
    00:00 +6°C° 0 mm 5 mps 748 mmHg 84%
    01:00 +6°C° 0 mm 5 mps 748 mmHg 85%
    02:00 +6°C° 0 mm 5 mps 749 mmHg 87%
    03:00 +6°C° 0 mm 5 mps 749 mmHg 88%
    04:00 +5°C° 0 mm 5 mps 749 mmHg 89%
    05:00 +5°C° 0 mm 5 mps 749 mmHg 90%
    06:00 +5°C° 0 mm 4 mps 748 mmHg 92%
    07:00 +7°C° 0 mm 5 mps 748 mmHg 85%
    08:00 +8°C° 0 mm 6 mps 748 mmHg 78%
    09:00 +9°C° 0 mm 7 mps 748 mmHg 71%
    10:00 +11°C° 0 mm 8 mps 747 mmHg 67%
    11:00 +12°C° 0 mm 9 mps 747 mmHg 64%
    12:00 +13°C° 0 mm 9 mps 746 mmHg 60%
    13:00 +15°C° 0 mm 9 mps 746 mmHg 60%
    14:00 +16°C° 0 mm 9 mps 745 mmHg 60%
    15:00 +16°C° 0 mm 9 mps 745 mmHg 60%
    16:00 +16°C° 0 mm 9 mps 744 mmHg 63%
    17:00 +16°C° 0 mm 8 mps 744 mmHg 66%
    18:00 +15°C° 0 mm 8 mps 744 mmHg 69%
    19:00 +15°C° 0.3 mm 8 mps 744 mmHg 72%
    20:00 +15°C° 0.3 mm 8 mps 744 mmHg 75%
    21:00 +15°C° 0.3 mm 8 mps 744 mmHg 78%
    22:00 +12°C° 0.2 mm 7 mps 745 mmHg 79%
    23:00 +10°C° 0.2 mm 6 mps 746 mmHg 79%

    29 September, Saturday

    Time Temperature Precipitation Wind Pressure Humidity
    00:00 +8°C° 0.2 mm 5 mps 747 mmHg 79%
    01:00 +7°C° 0 mm 4 mps 748 mmHg 81%
    02:00 +6°C° 0 mm 4 mps 749 mmHg 82%
    03:00 +5°C° 0 mm 3 mps 750 mmHg 84%
    04:00 +4°C° 0 mm 3 mps 750 mmHg 85%
    05:00 +4°C° 0 mm 3 mps 751 mmHg 86%
    06:00 +4°C° 0 mm 2 mps 752 mmHg 87%
    07:00 +4°C° 0 mm 3 mps 752 mmHg 79%
    08:00 +5°C° 0 mm 3 mps 753 mmHg 71%
    09:00 +7°C° 0 mm 3 mps 753 mmHg 63%
    10:00 +8°C° 0 mm 3 mps 754 mmHg 57%
    11:00 +9°C° 0 mm 3 mps 754 mmHg 51%
    12:00 +10°C° 0 mm 3 mps 754 mmHg 45%
    13:00 +11°C° 0 mm 3 mps 754 mmHg 45%
    14:00 +11°C° 0 mm 3 mps 754 mmHg 45%
    15:00 +11°C° 0 mm 3 mps 754 mmHg 45%
    16:00 +10°C° 0 mm 2 mps 754 mmHg 49%
    17:00 +9°C° 0 mm 2 mps 755 mmHg 54%
    18:00 +9°C° 0 mm 2 mps 755 mmHg 58%
    19:00 +8°C° 0 mm 2 mps 755 mmHg 60%
    20:00 +8°C° 0 mm 2 mps 756 mmHg 62%
    21:00 +7°C° 0 mm 2 mps 756 mmHg 64%
    22:00 +7°C° 0 mm 2 mps 756 mmHg 64%
    23:00 +6°C° 0 mm 2 mps 757 mmHg 65%

    30 September, Sunday

    Time Temperature Precipitation Wind Pressure Humidity
    00:00 +6°C° 0 mm 2 mps 757 mmHg 65%
    01:00 +5°C° 0 mm 2 mps 757 mmHg 65%
    02:00 +4°C° 0 mm 2 mps 757 mmHg 66%
    03:00 +4°C° 0 mm 2 mps 758 mmHg 66%
    04:00 +3°C° 0 mm 2 mps 758 mmHg 68%
    05:00 +4°C° 0 mm 1 mps 758 mmHg 69%
    06:00 +3°C° 0 mm 1 mps 758 mmHg 70%
    07:00 +4°C° 0 mm 2 mps 758 mmHg 66%
    08:00 +5°C° 0 mm 2 mps 759 mmHg 62%
    09:00 +6°C° 0 mm 2 mps 759 mmHg 57%
    10:00 +7°C° 0 mm 3 mps 759 mmHg 52%
    11:00 +8°C° 0 mm 3 mps 759 mmHg 48%
    12:00 +9°C° 0 mm 3 mps 759 mmHg 43%
    13:00 +8°C° 0 mm 4 mps 759 mmHg 43%
    14:00 +10°C° 0 mm 4 mps 759 mmHg 44%
    15:00 +10°C° 0 mm 4 mps 759 mmHg 44%
    16:00 +9°C° 0 mm 3 mps 759 mmHg 49%
    17:00 +8°C° 0 mm 2 mps 759 mmHg 54%
    18:00 +8°C° 0 mm 1 mps 759 mmHg 59%
    19:00 +6°C° 0 mm 2 mps 759 mmHg 61%
    20:00 +6°C° 0 mm 2 mps 759 mmHg 64%
    21:00 +5°C° 0 mm 2 mps 759 mmHg 66%
    22:00 +5°C° 0 mm 2 mps 759 mmHg 67%
    23:00 +5°C° 0 mm 2 mps 759 mmHg 69%

    1 October, Monday

    Time Temperature Precipitation Wind Pressure Humidity
    00:00 +4°C° 0 mm 3 mps 759 mmHg 70%
    01:00 +3°C° 0 mm 3 mps 759 mmHg 69%
    02:00 +3°C° 0 mm 3 mps 759 mmHg 69%
    03:00 +3°C° 0 mm 3 mps 759 mmHg 69%
    04:00 +3°C° 0 mm 3 mps 759 mmHg 69%
    05:00 +3°C° 0 mm 3 mps 758 mmHg 69%
    06:00 +3°C° 0 mm 3 mps 758 mmHg 70%
    07:00 +4°C° 0 mm 3 mps 758 mmHg 66%
    08:00 +6°C° 0 mm 4 mps 758 mmHg 63%
    09:00 +7°C° 0 mm 4 mps 758 mmHg 60%
    10:00 +8°C° 0 mm 4 mps 758 mmHg 56%
    11:00 +11°C° 0 mm 4 mps 758 mmHg 52%
    12:00 +12°C° 0 mm 4 mps 758 mmHg 48%
    13:00 +12°C° 0 mm 4 mps 758 mmHg 48%
    14:00 +13°C° 0 mm 4 mps 758 mmHg 47%
    15:00 +13°C° 0 mm 4 mps 758 mmHg 46%
    16:00 +12°C° 0 mm 3 mps 758 mmHg 51%
    17:00 +10°C° 0 mm 3 mps 758 mmHg 56%
    18:00 +9°C° 0 mm 2 mps 758 mmHg 62%
    19:00 +8°C° 0 mm 2 mps 758 mmHg 64%
    20:00 +8°C° 0 mm 2 mps 758 mmHg 66%
    21:00 +7°C° 0 mm 2 mps 758 mmHg 68%
    22:00 +7°C° 0 mm 2 mps 758 mmHg 69%
    23:00 +7°C° 0 mm 2 mps 758 mmHg 71%
    Show more